GW1109 Weather Reports


time (UTC)temp
C
wind
direction
speed
KPH
gust
KPH
rain 1hr
cm
rain 24hr
cm
rain mn
cm
humidity
%
barometer
mb
20260831121553 16 319 3.2 8.0 0.00 0.03 0.00 74 1020.4
20260831120055 16 302 3.2 8.0 0.00 0.03 0.00 78 1020.3
20260831114605 15 336 1.6 6.4 0.00 0.03 0.00 83 1020.2
20260831113100 14 0 0.0 3.2 0.00 0.03 0.00 87 1020.1
20260831111553 13 0 0.0 3.2 0.00 0.03 0.00 90 1020.1
20260831110051 13 0 0.0 3.2 0.00 0.03 0.00 94 1020.1
20260831104559 12 0 0.0 0.0 0.00 0.03 0.00 93 1020.1
20260831103047 12 0 0.0 1.6 0.00 0.03 0.00 91 1019.9
20260831101555 12 0 0.0 1.6 0.00 0.03 0.00 91 1019.6
20260831100108 12 0 0.0 1.6 0.00 0.03 0.00 90 1019.6
20260831094600 12 0 0.0 0.0 0.00 0.03 0.00 89 1019.4
20260831093058 12 0 0.0 0.0 0.00 0.03 0.00 87 1019.3
20260831091601 13 0 0.0 6.4 0.00 0.03 0.00 85 1019.2
20260831090053 13 0 0.0 1.6 0.00 0.03 0.00 86 1019.1
20260831084547 13 0 0.0 1.6 0.00 0.03 0.00 86 1018.9
20260831083055 13 0 0.0 1.6 0.00 0.03 0.00 84 1018.7
20260831081554 14 0 0.0 1.6 0.00 0.03 0.00 82 1018.5
20260831080049 14 304 0.0 6.4 0.00 0.03 0.00 81 1018.4
20260831074547 15 0 1.6 9.7 0.00 0.03 0.00 82 1018.4
20260831073103 14 30 4.8 12.9 0.00 0.03 0.00 87 1018.3
20260831071552 14 0 0.0 6.4 0.00 0.03 0.00 90 1018.3
20260831070049 15 0 1.6 6.4 0.00 0.03 0.00 90 1018.3
20260831064558 15 0 0.0 6.4 0.00 0.03 0.00 90 1018.1
20260831063052 15 5 0.0 6.4 0.00 0.03 0.00 91 1018.0
20260831061548 15 0 0.0 4.8 0.00 0.03 0.00 90 1018.0
20260831060111 15 0 0.0 6.4 0.00 0.03 0.00 88 1017.9
20260831054558 15 291 0.0 1.6 0.00 0.03 0.00 88 1017.8
20260831053055 15 0 0.0 3.2 0.00 0.03 0.00 86 1017.7
20260831051557 15 0 0.0 3.2 0.00 0.03 0.00 84 1017.7
20260831050055 15 0 0.0 3.2 0.00 0.03 0.00 82 1017.5
20260831044556 15 328 0.0 3.2 0.00 0.03 0.00 82 1017.5
20260831043048 16 0 0.0 4.8 0.00 0.03 0.00 83 1017.6
20260831041643 16 0 0.0 4.8 0.00 0.03 0.00 84 1017.6
20260831040051 16 0 1.6 6.4 0.00 0.03 0.00 83 1017.4
20260831034548 17 331 0.0 4.8 0.00 0.03 0.03 83 1017.7
20260831033100 17 0 0.0 6.4 0.00 0.03 0.03 80 1017.5
20260831031552 18 317 3.2 14.5 0.00 0.03 0.03 82 1017.6
20260831030054 18 329 9.7 20.9 0.00 0.03 0.03 86 1017.7
20260831024603 19 340 6.4 16.1 0.03 0.03 0.03 90 1017.5
20260831023057 19 304 4.8 8.0 0.03 0.03 0.03 88 1017.1
20260831021554 19 298 4.8 11.3 0.03 0.03 0.03 86 1017.2
20260831020049 19 256 3.2 12.9 0.03 0.03 0.03 83 1016.7
20260831014547 19 294 6.4 14.5 0.00 0.00 0.00 80 1017.0
20260831013107 20 285 6.4 12.9 0.00 0.00 0.00 76 1016.7
20260831011556 20 306 4.8 9.7 0.00 0.00 0.00 73 1016.5
20260831010116 20 284 3.2 8.0 0.00 0.00 0.00 72 1016.2
20260831004549 20 306 3.2 6.4 0.00 0.00 0.00 73 1015.9
20260831003056 20 0 0.0 4.8 0.00 0.00 0.00 73 1015.5
20260831001552 20 339 3.2 8.0 0.00 0.00 0.00 72 1015.7
20260831000110 20 0 0.0 3.2 0.00 0.00 0.00 69 1015.2
20260830234559 20 305 0.0 4.8 0.00 0.00 0.00 71 1015.1
20260830233051 20 244 0.0 4.8 0.00 0.00 0.00 69 1015.0
20260830231557 21 0 0.0 3.2 0.00 0.00 0.00 68 1015.2
20260830230054 21 0 0.0 0.0 0.00 0.00 0.00 69 1015.2
20260830224555 22 0 0.0 0.0 0.00 0.00 0.00 67 1015.2
20260830223128 22 0 0.0 1.6 0.00 0.00 0.00 61 1015.4
20260830221553 22 0 0.0 1.6 0.00 0.00 0.00 61 1015.6
20260830220107 22 244 0.0 1.6 0.00 0.00 0.00 58 1015.5
20260830214603 22 244 3.2 9.7 0.00 0.00 0.00 57 1015.8
20260830213056 22 315 3.2 12.9 0.00 0.00 0.00 58 1015.8
20260830211549 22 327 4.8 14.5 0.00 0.00 0.00 58 1015.9
20260830210049 22 265 6.4 12.9 0.00 0.00 0.00 58 1016.1
20260830204547 22 292 3.2 14.5 0.00 0.00 0.00 58 1016.2
20260830203055 22 277 3.2 11.3 0.00 0.00 0.00 58 1016.1
20260830201552 23 261 3.2 9.7 0.00 0.00 0.00 59 1016.4
20260830200103 22 236 1.6 8.0 0.00 0.00 0.00 60 1016.5
20260830194608 22 275 4.8 9.7 0.00 0.00 0.00 61 1016.6
20260830193103 22 239 6.4 14.5 0.00 0.00 0.00 58 1016.9
20260830191551 22 223 4.8 11.3 0.00 0.00 0.00 62 1017.0
20260830190105 22 225 4.8 12.9 0.00 0.00 0.00 60 1017.2
20260830184608 22 263 6.4 16.1 0.00 0.00 0.00 61 1017.5
20260830183100 22 264 3.2 11.3 0.00 0.00 0.00 63 1017.4
20260830181549 22 264 6.4 16.1 0.00 0.00 0.00 64 1017.6
20260830180103 22 258 6.4 16.1 0.00 0.00 0.00 63 1017.9
20260830174605 22 283 6.4 19.3 0.00 0.00 0.00 64 1018.0
20260830173107 22 280 6.4 14.5 0.00 0.00 0.00 65 1018.1
20260830171621 22 241 6.4 14.5 0.00 0.00 0.00 64 1018.0
20260830170103 22 271 4.8 12.9 0.00 0.00 0.00 63 1017.9
20260830164557 22 271 3.2 19.3 0.00 0.00 0.00 60 1017.6
20260830163052 22 240 3.2 11.3 0.00 0.00 0.00 59 1018.2
20260830161602 22 273 6.4 16.1 0.00 0.00 0.00 57 1018.2
20260830154553 23 269 9.7 27.4 0.00 0.00 0.00 55 1018.3
20260830153054 23 272 8.0 20.9 0.00 0.00 0.00 56 1018.4
20260830151610 22 269 9.7 16.1 0.00 0.00 0.00 58 1018.5
20260830150105 22 306 9.7 20.9 0.00 0.00 0.00 58 1018.6
20260830144557 22 234 8.0 20.9 0.00 0.00 0.00 58 1018.7
20260830143055 22 272 4.8 14.5 0.00 0.00 0.00 62 1018.7
20260830141604 21 228 4.8 16.1 0.00 0.00 0.00 62 1018.7
20260830140100 20 218 8.0 17.7 0.00 0.00 0.00 63 1018.9
20260830134555 20 224 4.8 14.5 0.00 0.00 0.00 63 1018.8
20260830133059 20 269 4.8 12.9 0.00 0.00 0.00 67 1019.1
20260830131554 18 254 6.4 16.1 0.00 0.00 0.00 69 1019.1
20260830130056 17 271 4.8 11.3 0.00 0.00 0.00 74 1019.2
20260830124558 16 225 6.4 17.7 0.00 0.00 0.00 73 1019.3
20260830123058 16 229 4.8 14.5 0.00 0.00 0.00 72 1019.3